OneWeb SL0243

operational
NORAD ID: 48774 Int'l Des: 2021-045 Owner: ONEWEBN Country: UK Constellation: oneweb
LEOCIRCULARPOLARONEWEB_TYPE

关于 OneWeb SL0243

正在加载描述...

实时位置

正在加载3D地球...

即将过境

高度历史

Altitude vs Time

uPlot chart will show altitude changes over time

两行轨道根数

1 48774U 21045H 25305.42533156 -.00000089 00000-0 -27159-3 0 9992
2 48774 87.8962 304.6753 0002011 103.3765 256.7589 13.15546598214410
Epoch: Nov 1, 2025 • Age: 28 hours

当前状态

高度 1209.8 km
速度 7.25 km/s
星下点 54.71°N, 57.34°E
发射日期 May 28, 2021
运行时间 4.4 years
类型 internet

技术详情

分类 Payload
质量 148.00 kg
干质量 140.00 kg
总质量 148.00 kg
长度 1.30 m
直径 1.00 m
跨度 5.00 m
形状 Trapezoid+2 pan
制造商 ONEWUS
平台类型 ARROW
阶段状态 In Orbit
所有者/国家 ONEWEBN/UK

大型星座

Loading constellations...